Dewpoint
55 55 55 55 55 53 53 53 54 53 53 52 52 52 52 52 52 52 51 50 49 50 50 49 49 48 47 48 47 47 47 47 47 47 47 47 46 46 46 46 45 44 45 45 45 44 44 44 43 44 43 43 43 44 43 42 41 42 42 41 41 42 41 39 38 38 40 43 43 42 42 40 37 38 38 39 38 39 41 39 40 39 40 40 41
55 55 55 55 54 54 53 53 54 54 53 55 53 52 52 53 53 52 51 51 50 50 51 51 50 49 48 48 48 48 47 47 47 47 48 47 46 47 47 45 45 44 44 44 44 45 44 44 44 43 43 44 43 43 42 40 39 40 41 41 40 41 42 39 39 38 37 39 41 40 39 40 37 37 38 37 36 38 37 37 38 39 39 40 40
55 54 54 54 54 54 54 53 54 54 53 53 52 53 52 52 53 52 52 51 51 50 51 52 52 51 50 49 49 48 48 48 48 47 47 47 47 46 47 46 45 44 43 44 44 44 43 44 43 43 44 43 43 43 42 41 40 40 41 40 39 40 41 40 37 36 37 37 39 36 37 37 37 35 35 34 35 35 36 37 37 39 39 39 39
54 54 53 53 53 53 53 53 54 54 54 54 53 53 53 53 53 53 52 52 51 50 51 52 52 51 50 50 49 49 49 49 49 48 48 48 48 48 47 47 46 45 44 44 45 44 43 43 44 43 44 43 42 42 42 42 40 39 38 39 38 39 40 39 38 36 38 34 36 37 36 34 35 33 34 33 34 35 36 35 36 37 38 38 38
54 54 53 53 53 52 52 53 53 54 54 54 55 55 55 54 54 54 54 53 53 52 52 52 52 51 51 50 49 49 49 49 49 49 48 48 47 48 47 46 47 46 45 44 47 44 43 44 44 44 43 43 42 42 41 40 39 37 36 37 37 38 39 38 38 36 34 32 34 38 36 33 33 34 34 33 34 35 35 35 35 36 38 38 38
54 54 53 53 52 52 53 53 53 53 54 53 53 54 55 54 54 54 54 55 54 54 54 54 53 52 51 51 51 50 50 50 49 49 49 48 48 47 48 47 46 47 46 45 46 45 43 43 45 46 44 43 42 41 41 39 37 35 35 34 36 37 36 37 36 34 32 32 32 32 34 33 32 33 33 34 35 34 34 35 36 37 37 37 38
53 53 52 51 52 52 52 53 54 54 54 54 53 53 53 52 53 52 53 53 53 53 54 54 54 54 54 53 52 51 51 51 50 49 49 48 48 47 47 48 47 46 47 46 45 45 45 44 45 46 44 44 43 42 41 40 39 37 38 37 36 34 35 35 33 32 33 31 33 33 33 34 33 32 33 34 34 35 35 35 35 36 38 37 37
53 52 52 52 52 53 53 53 53 54 54 54 53 53 53 52 52 52 53 53 53 53 53 54 54 54 54 54 53 52 51 51 50 50 50 49 48 48 48 48 48 47 47 47 46 46 45 45 45 46 45 44 43 43 41 39 37 35 38 36 35 34 35 35 34 33 33 33 32 31 33 33 33 34 35 34 34 34 35 36 35 36 36 37 37
52 52 51 51 52 52 52 52 52 53 53 53 52 52 53 53 53 52 52 53 53 52 53 54 53 53 52 52 51 51 52 52 52 52 51 50 49 48 48 48 48 47 47 47 47 46 46 45 45 46 47 48 46 44 43 40 34 31 36 37 35 34 35 35 36 34 34 33 33 33 33 31 32 33 33 33 33 34 35 35 35 36 36 36 36
51 50 50 50 50 51 51 51 52 53 53 53 52 52 52 52 53 52 52 52 53 53 53 52 51 52 52 51 50 49 51 51 52 49 49 51 50 49 49 49 48 48 47 47 47 47 47 46 47 50 48 48 45 42 40 38 38 34 32 35 34 32 32 34 35 35 35 33 32 32 32 31 32 33 33 33 35 35 35 36 35 36 36 35 35
48 49 49 49 49 49 49 50 50 51 52 52 52 51 52 52 52 52 52 51 52 52 51 51 51 51 50 50 50 50 51 52 48 46 45 46 51 50 49 49 49 48 48 47 47 48 46 46 46 48 48 47 44 40 37 37 36 36 36 37 37 33 33 33 34 35 38 34 33 32 31 32 32 33 33 34 34 34 35 35 35 36 35 34 33
42 41 41 40 43 46 46 46 47 48 49 51 51 51 51 52 52 52 52 51 51 51 51 51 50 49 48 48 49 50 50 50 47 46 44 43 46 51 50 50 49 49 48 47 47 47 46 45 45 47 46 44 40 36 35 36 35 35 36 36 36 37 38 36 37 34 33 32 32 32 31 32 32 32 33 33 35 35 34 34 34 34 34 34 33
36 35 36 38 38 41 41 40 40 40 42 43 42 43 46 48 49 49 49 47 47 48 49 47 47 47 48 49 49 49 50 48 46 45 44 43 42 46 51 49 49 49 48 48 47 47 45 44 44 46 44 45 40 33 33 34 36 37 37 37 37 36 35 35 37 37 33 32 32 32 32 32 32 34 35 35 35 34 34 33 33 33 34 34 33
37 35 35 36 37 39 40 40 39 39 40 39 40 39 40 39 40 41 41 42 42 42 42 43 43 44 46 46 46 47 48 47 45 44 43 42 41 42 49 49 48 48 48 48 47 46 45 43 43 43 42 41 36 35 36 35 36 36 36 36 36 38 37 35 35 36 37 34 33 32 33 35 34 34 36 36 34 33 32 31 32 32 32 32 32
36 37 34 35 36 36 38 38 38 38 38 38 38 38 38 39 39 41 39 39 40 39 40 39 41 42 41 43 44 47 48 44 40 41 41 41 41 40 47 47 47 47 47 47 47 46 44 43 43 42 41 40 39 37 38 38 38 39 37 37 37 36 37 36 36 35 36 35 34 34 34 34 35 34 34 34 34 33 33 32 33 33 34 34 32
36 36 34 35 34 36 37 37 37 36 37 37 36 36 37 37 35 37 38 37 38 37 38 39 39 39 40 40 42 42 43 39 39 41 41 40 40 44 44 45 45 45 45 44 44 42 43 43 42 42 42 40 40 38 39 41 39 38 37 36 35 35 36 38 38 38 38 36 35 34 34 34 36 34 34 34 33 33 34 34 32 31 30 29 28
36 36 37 37 39 36 36 36 37 36 36 35 35 35 34 34 35 38 35 35 36 37 37 38 38 37 39 39 39 41 41 38 37 40 40 39 41 43 42 42 42 41 39 40 40 41 42 43 43 42 42 41 39 37 38 39 38 37 35 35 35 34 35 36 37 36 36 36 35 36 35 35 35 35 35 36 34 34 32 30 29 27 28 28 29
36 38 34 35 38 38 37 37 37 38 36 36 36 36 36 36 36 39 34 34 35 37 37 36 36 37 37 38 38 39 38 37 37 38 39 39 43 42 40 40 38 38 38 38 39 40 43 46 43 40 37 36 35 35 36 37 36 35 34 33 33 31 31 33 34 34 35 35 35 34 34 34 35 35 35 35 35 36 31 29 29 28 29 29 29
38 35 35 34 37 36 38 38 38 38 38 37 36 35 36 37 37 38 35 36 36 37 38 36 34 35 34 34 40 34 33 36 38 37 38 39 41 40 40 39 38 36 36 35 35 35 36 39 41 38 37 36 34 34 34 35 33 33 32 32 31 28 29 29 30 29 29 30 29 31 31 33 33 32 34 35 35 36 33 32 31 29 29 30 30
38 35 35 35 38 38 38 38 39 39 38 38 38 38 38 38 37 37 36 36 37 35 36 35 34 32 32 31 33 32 33 33 37 37 38 39 40 40 39 37 37 35 34 34 34 33 33 34 36 33 33 33 33 33 34 33 32 32 31 30 28 27 29 29 33 28 29 30 28 28 30 30 30 30 30 31 33 35 34 33 32 31 30 30 30
39 41 37 36 38 39 39 39 37 39 38 38 38 40 39 38 37 37 37 36 36 35 34 33 33 31 31 30 30 31 35 33 35 36 37 38 38 38 37 37 36 35 34 33 32 32 32 32 33 33 32 32 32 33 34 34 34 33 30 29 30 31 31 28 32 35 30 31 31 30 31 30 30 30 30 30 32 33 34 33 33 32 31 31 30
36 37 35 36 35 36 37 38 38 39 39 39 37 37 37 38 37 37 36 35 35 34 33 32 31 29 29 29 30 29 34 38 33 35 36 36 36 37 37 35 34 33 32 32 32 31 31 31 31 33 33 33 33 33 33 34 34 36 33 33 33 33 32 33 29 30 30 30 28 29 29 28 28 29 30 31 33 34 33 32 32 32 32 32 31
37 37 37 37 38 37 37 38 38 40 40 39 37 36 36 37 36 36 36 35 35 33 31 31 30 29 28 28 28 29 29 33 35 33 35 35 35 34 34 33 34 34 32 32 31 31 32 32 34 34 33 33 33 33 33 34 35 35 33 33 33 33 34 33 31 30 29 28 29 29 28 28 29 29 30 31 31 31 32 32 32 32 32 33 33
34 34 34 35 36 37 39 40 40 39 39 38 36 35 35 36 36 36 35 37 35 32 30 30 30 30 29 27 28 28 28 29 34 34 34 34 34 34 34 35 35 35 34 33 32 32 31 32 35 34 34 34 33 33 33 34 33 33 33 33 33 34 33 32 30 29 29 28 28 27 28 28 28 29 30 31 32 31 31 32 32 32 32 32 32
34 34 34 34 34 35 35 36 36 36 36 36 34 35 34 34 34 35 37 35 35 34 32 31 33 31 29 28 27 27 28 29 30 33 34 34 34 34 34 34 34 34 34 35 34 34 34 35 35 34 34 34 34 33 34 34 33 33 33 33 36 31 31 29 28 28 27 28 28 28 28 29 30 30 31 31 31 31 31 31 32 32 32 33 33
35 35 35 35 35 34 34 34 34 34 34 34 34 33 34 35 35 34 37 36 36 35 33 32 32 32 31 28 27 27 28 28 29 30 34 34 34 34 34 34 34 34 34 34 34 34 34 34 33 33 33 34 34 33 31 32 34 33 33 34 28 28 28 27 27 28 27 27 28 29 29 29 29 29 29 29 29 29 29 30 30 30 30 31 30
36 36 35 35 35 35 35 34 34 34 33 33 34 34 34 33 34 34 36 37 36 35 34 34 32 30 29 28 28 27 27 28 28 28 29 31 32 33 32 33 34 33 34 34 34 34 34 34 33 33 33 33 33 32 32 31 30 29 27 28 28 28 29 28 27 28 28 28 28 29 29 29 29 28 29 29 29 29 30 30 30 30 30 30 30
36 35 35 35 35 35 35 33 34 34 33 32 34 35 34 34 35 36 37 37 36 36 35 34 34 32 29 27 27 28 27 28 29 29 29 31 31 32 32 31 29 29 31 32 33 33 32 32 31 31 30 30 30 29 28 28 28 29 27 26 27 27 31 32 32 28 27 28 28 27 28 28 28 29 29 29 29 30 30 30 30 30 30 30 30
35 35 35 35 35 35 36 35 35 35 34 31 28 30 33 36 37 36 35 37 39 38 37 37 35 34 32 29 28 27 26 27 29 32 32 33 32 31 30 29 30 31 33 33 31 31 30 30 30 29 29 28 26 24 25 25 24 25 26 27 27 27 27 26 27 28 28 27 28 28 29 29 29 29 29 29 29 29 30 30 30 30 30 30 30
34 34 34 34 35 35 35 35 35 34 34 32 31 31 32 34 33 36 36 37 38 38 37 37 36 34 32 30 29 27 26 26 31 33 33 33 33 32 32 32 32 32 33 32 31 30 29 28 28 27 25 24 22 21 21 21 20 22 22 27 25 25 26 26 26 27 27 27 29 29 29 29 29 29 29 29 29 30 30 30 29 30 30 30 30
34 34 34 34 33 34 34 35 34 33 33 32 33 33 31 32 34 34 34 35 36 38 37 37 36 34 33 30 30 31 31 31 33 34 33 33 33 32 32 33 33 32 32 30 29 29 28 27 24 23 22 21 20 22 22 21 22 22 23 23 24 25 25 25 27 26 28 29 29 29 30 30 30 30 29 29 30 29 29 30 30 30 30 30 30
34 34 34 34 34 33 34 34 34 34 32 32 33 33 33 33 33 33 33 34 37 37 37 36 35 34 33 33 32 31 32 33 34 33 33 33 32 32 32 32 32 32 32 31 28 26 24 24 21 21 20 21 22 22 22 21 21 22 23 23 25 24 24 26 28 29 29 29 29 30 30 30 30 30 30 30 30 30 30 30 30 30 30 30 30
35 35 34 34 34 34 34 34 34 34 34 33 32 33 33 33 35 32 32 33 34 34 34 34 34 33 33 33 33 32 33 33 33 33 33 32 32 32 33 32 32 32 31 28 26 22 20 20 20 22 21 22 21 21 21 23 23 23 24 23 25 26 27 29 29 30 30 30 30 30 30 30 30 30 30 30 30 29 30 30 30 30 30 30 30
36 36 36 36 35 35 35 34 34 34 34 34 34 33 34 35 35 34 33 30 32 32 33 33 33 33 33 33 32 33 33 33 33 33 33 32 32 32 32 31 31 32 30 25 24 22 20 22 23 24 24 23 22 22 22 22 23 24 25 26 26 27 29 30 30 30 30 30 30 30 30 30 30 30 30 30 30 30 30 30 30 30 30 30 30
37 35 34 34 36 36 36 35 34 34 33 33 34 33 34 33 33 34 34 34 32 31 28 30 31 32 32 32 33 33 33 33 33 33 32 32 32 32 31 29 27 27 27 27 26 26 24 22 22 24 24 22 22 22 22 25 25 25 26 27 27 28 28 29 29 30 30 30 30 30 30 30 30 30 30 30 30 29 29 30 30 30 30 30 30
37 37 37 36 36 36 35 35 34 34 34 34 34 34 32 32 32 31 31 31 30 29 28 29 31 31 32 32 32 32 32 32 32 32 32 32 31 30 28 27 27 26 25 25 25 24 24 25 24 24 24 24 22 23 24 26 27 27 27 27 27 28 28 29 29 30 30 30 30 30 30 30 30 30 30 30 30 30 30 30 30 30 30 30 30
37 37 38 38 37 36 36 35 34 34 33 32 31 30 30 30 29 30 30 30 29 29 29 30 30 30 31 32 32 32 32 32 32 32 32 31 31 30 29 27 27 26 25 25 25 25 25 24 23 24 24 24 24 24 25 26 27 27 29 28 28 28 28 29 30 30 30 30 30 30 30 30 31 31 30 30 30 30 30 30 30 30 30 30 30
37 37 38 38 38 37 36 35 34 33 31 31 30 30 30 30 30 29 29 29 29 28 27 27 29 28 28 29 32 31 32 32 31 30 30 29 27 27 26 26 27 26 25 24 25 25 24 24 24 24 24 24 24 25 25 26 27 27 28 28 29 29 31 30 30 30 30 30 31 31 31 31 31 31 31 30 30 29 30 30 30 30 30 30 30
38 36 35 35 36 38 36 34 33 32 31 31 31 30 30 30 29 30 30 28 27 27 28 27 27 28 29 30 29 31 28 25 24 25 25 23 23 25 26 26 26 25 25 25 25 24 24 23 23 23 23 23 24 24 24 26 27 27 28 29 29 29 29 29 30 30 30 30 31 31 31 31 31 31 31 30 30 30 30 30 30 30 30 30 30
36 37 35 34 36 36 35 33 32 31 31 30 29 30 30 29 29 29 29 28 28 28 28 28 28 28 29 29 29 27 26 26 26 25 24 24 24 24 26 26 26 26 26 24 24 23 24 23 23 22 23 23 23 25 25 27 26 27 28 29 28 28 28 29 30 30 30 31 31 31 31 31 31 31 31 31 31 31 31 30 30 31 31 30 30
36 35 34 34 35 35 34 33 32 31 30 30 30 30 30 30 29 29 29 29 29 28 28 27 27 28 29 29 29 29 28 29 29 28 26 26 25 26 25 24 24 25 23 23 23 23 23 22 20 20 19 21 22 23 25 25 26 26 27 28 28 28 28 29 30 30 30 31 31 31 31 31 31 31 31 31 32 31 31 31 31 31 31 31 31
36 35 35 35 34 34 33 32 31 31 30 30 30 30 30 30 31 31 30 30 29 29 29 29 29 30 30 31 31 31 31 30 29 29 27 27 27 25 24 23 25 25 23 24 23 21 21 21 21 20 20 23 23 24 24 24 25 25 26 26 26 27 27 28 29 30 30 30 30 30 31 31 31 32 32 32 32 31 31 31 31 31 31 31 31
36 36 36 35 35 34 33 33 33 33 32 31 31 31 31 32 32 31 30 30 30 30 29 30 30 30 31 31 31 31 30 30 29 29 28 26 25 23 23 21 21 23 23 23 22 19 18 19 21 20 21 22 22 23 23 24 24 25 24 24 25 26 26 27 28 29 29 29 29 30 30 31 32 32 32 32 32 31 31 31 31 31 31 31 31
36 36 36 35 35 35 35 35 33 33 32 31 32 31 32 32 32 32 31 31 31 31 31 31 31 31 31 31 31 30 30 29 29 28 28 26 25 23 20 20 22 22 23 22 20 19 19 19 19 20 21 21 22 22 22 23 23 22 23 23 24 26 26 27 27 28 28 28 28 29 30 31 32 32 32 32 32 31 31 31 31 31 31 32 32
36 36 36 36 35 35 35 34 34 33 32 33 33 33 32 33 32 32 32 32 31 31 31 31 31 31 31 30 30 30 29 29 28 27 26 25 24 21 19 18 19 20 20 19 18 20 20 19 19 20 22 23 23 22 22 22 21 21 21 23 24 25 26 27 27 28 28 28 28 29 30 31 32 32 32 32 32 32 31 31 31 32 32 32 32
35 35 35 34 34 34 34 34 33 34 34 33 33 33 33 33 33 32 32 31 31 31 30 30 30 30 30 30 29 29 28 27 27 26 25 23 22 20 19 19 19 20 18 19 19 20 21 21 20 21 21 22 22 21 22 21 22 22 23 24 25 26 27 27 27 28 28 28 29 29 30 31 32 32 32 32 32 32 32 32 32 32 32 32 32
34 33 34 34 33 33 33 33 33 33 33 33 32 32 32 32 32 31 31 31 30 30 30 30 29 29 29 28 28 27 27 27 25 25 25 24 22 21 20 19 18 18 18 20 21 21 21 23 21 21 21 21 20 21 22 23 24 25 25 25 26 26 26 26 26 27 27 28 29 29 30 31 31 32 32 32 32 32 32 32 32 32 32 32 32
31 32 32 33 33 33 32 32 32 31 32 31 31 31 30 30 30 29 29 28 28 28 28 28 28 28 28 27 27 27 26 26 26 25 24 23 21 21 20 20 20 18 20 21 21 22 22 22 22 20 21 22 23 23 24 25 25 25 25 25 26 26 26 26 26 27 27 28 28 29 30 31 31 31 32 32 32 32 32 32 32 32 32 32 32
30 30 30 30 30 30 30 30 30 29 29 29 29 28 28 28 27 27 27 27 27 27 27 27 27 27 27 27 27 27 26 25 25 24 23 23 23 22 21 21 22 20 20 21 21 22 23 22 23 22 23 24 25 24 24 25 25 25 25 25 25 25 25 25 25 26 26 27 28 29 30 30 30 31 31 32 32 32 32 32 32 32 32 32 32
28 28 28 28 28 28 28 28 28 28 28 28 28 28 28 27 27 27 27 26 26 26 26 27 27 27 27 27 26 27 26 25 24 23 23 23 24 24 23 22 21 20 19 20 20 21 21 22 24 25 26 26 26 26 25 25 25 25 25 25 25 25 25 25 25 25 26 26 27 29 29 29 30 30 31 31 32 32 32 32 32 32 32 32 32
28 28 28 28 28 28 28 27 27 27 27 27 27 27 27 26 26 26 26 26 26 26 26 26 26 26 26 26 26 27 26 26 26 26 25 25 27 28 26 23 22 20 20 20 21 22 24 25 25 25 26 27 27 27 26 25 25 25 25 25 25 25 25 25 25 25 25 25 27 29 30 29 29 30 31 31 31 31 31 32 32 32 32 32 32